| time (UTC) | temp C | wind direction | speed KPH | gust KPH | rain 1hr cm | rain 24hr cm | rain mn cm | humidity % | barometer mb |
| 20260503224549 | 10 | 104 | 0.0 | 3.2 | 0.00 | 0.10 | 0.10 | 87 | |
| 20260503224047 | 10 | 41 | 3.2 | 4.8 | 0.00 | 0.10 | 0.10 | 87 | |
| 20260503223544 | 10 | 75 | 1.6 | 4.8 | 0.00 | 0.10 | 0.10 | 87 | |
| 20260503223039 | 10 | 27 | 0.0 | 1.6 | 0.00 | 0.10 | 0.10 | 88 | |
| 20260503222538 | 10 | 4 | 1.6 | 3.2 | 0.00 | 0.10 | 0.10 | 87 | |
| 20260503222036 | 10 | 74 | 3.2 | 8.0 | 0.00 | 0.10 | 0.10 | 87 | |
| 20260503221534 | 10 | 64 | 4.8 | 4.8 | 0.00 | 0.10 | 0.10 | 87 | |
| 20260503221031 | 10 | 65 | 3.2 | 8.0 | 0.00 | 0.10 | 0.10 | 87 | |
| 20260503220527 | 10 | 282 | 0.0 | 3.2 | 0.00 | 0.10 | 0.10 | 88 | |
| 20260503220024 | 10 | 58 | 3.2 | 8.0 | 0.00 | 0.10 | 0.10 | 87 | |
| 20260503215521 | 9 | 24 | 1.6 | 3.2 | 0.13 | 0.10 | 0.10 | 87 | |
| 20260503215018 | 9 | 19 | 3.2 | 4.8 | 0.30 | 0.10 | 0.10 | 86 | |
| 20260503214516 | 10 | 51 | 1.6 | 12.9 | 0.18 | 0.08 | 0.08 | 85 | |
| 20260503214012 | 10 | 63 | 1.6 | 4.8 | 0.00 | 0.05 | 0.05 | 85 | |
| 20260503213511 | 10 | 310 | 4.8 | 9.7 | 0.13 | 0.05 | 0.05 | 85 | |
| 20260503213007 | 10 | 6 | 4.8 | 11.3 | 0.13 | 0.05 | 0.05 | 84 | |
| 20260503212505 | 10 | 52 | 9.7 | 12.9 | 0.00 | 0.03 | 0.03 | 83 | |
| 20260503212002 | 10 | 73 | 6.4 | 20.9 | 0.00 | 0.03 | 0.03 | 80 | |
| 20260503211459 | 11 | 142 | 14.5 | 17.7 | 0.00 | 0.03 | 0.03 | 78 | |
| 20260503210954 | 11 | 359 | 3.2 | 9.7 | 0.00 | 0.03 | 0.03 | 78 | |
| 20260503210451 | 11 | 340 | 4.8 | 12.9 | 0.00 | 0.03 | 0.03 | 79 | |
| 20260503205946 | 10 | 10 | 1.6 | 22.5 | 0.18 | 0.03 | 0.03 | 80 | |
| 20260503205443 | 10 | 22 | 6.4 | 12.9 | 0.18 | 0.03 | 0.03 | 81 | |
| 20260503204939 | 10 | 92 | 11.3 | 14.5 | 0.00 | 0.00 | 0.00 | 81 | |
| 20260503204436 | 10 | 53 | 4.8 | 11.3 | 0.00 | 0.00 | 0.00 | 81 | |
| 20260503203933 | 11 | 77 | 4.8 | 20.9 | 0.00 | 0.00 | 0.00 | 79 | |
| 20260503203431 | 11 | 76 | 9.7 | 14.5 | 0.00 | 0.00 | 0.00 | 77 | |
| 20260503202927 | 12 | 75 | 8.0 | 17.7 | 0.00 | 0.00 | 0.00 | 73 | |
| 20260503202426 | 12 | 62 | 8.0 | 29.0 | 0.00 | 0.00 | 0.00 | 62 | |
| 20260503201924 | 13 | 288 | 12.9 | 17.7 | 0.00 | 0.00 | 0.00 | 54 | |
| 20260503201421 | 13 | 117 | 6.4 | 12.9 | 0.00 | 0.00 | 0.00 | 52 | |
| 20260503200918 | 13 | 33 | 8.0 | 17.7 | 0.00 | 0.00 | 0.00 | 52 | |
| 20260503200414 | 13 | 351 | 11.3 | 14.5 | 0.00 | 0.00 | 0.00 | 51 | |
| 20260503195911 | 13 | 251 | 6.4 | 32.2 | 0.00 | 0.00 | 0.00 | 54 | |
| 20260503195409 | 13 | 64 | 11.3 | 14.5 | 0.00 | 0.00 | 0.00 | 56 | |
| 20260503194905 | 14 | 149 | 14.5 | 22.5 | 0.00 | 0.00 | 0.00 | 51 | |
| 20260503194402 | 15 | 49 | 1.6 | 8.0 | 0.00 | 0.00 | 0.00 | 50 | |
| 20260503193858 | 14 | 341 | 3.2 | 4.8 | 0.00 | 0.00 | 0.00 | 52 | |
| 20260503193353 | 13 | 190 | 1.6 | 9.7 | 0.00 | 0.00 | 0.00 | 54 | |
| 20260503192849 | 13 | 143 | 4.8 | 14.5 | 0.00 | 0.00 | 0.00 | 54 | |
| 20260503192345 | 13 | 113 | 0.0 | 8.0 | 0.00 | 0.00 | 0.00 | 53 | |
| 20260503191842 | 14 | 27 | 6.4 | 16.1 | 0.00 | 0.00 | 0.00 | 49 | |
| 20260503191339 | 15 | 56 | 8.0 | 11.3 | 0.00 | 0.00 | 0.00 | 44 | |
| 20260503190835 | 15 | 143 | 6.4 | 20.9 | 0.00 | 0.00 | 0.00 | 44 | |
| 20260503190332 | 15 | 117 | 4.8 | 11.3 | 0.00 | 0.00 | 0.00 | 42 | |
| 20260503185829 | 15 | 206 | 4.8 | 9.7 | 0.00 | 0.00 | 0.00 | 42 | |
| 20260503185325 | 15 | 1 | 3.2 | 8.0 | 0.00 | 0.00 | 0.00 | 41 | |
| 20260503184820 | 16 | 156 | 1.6 | 12.9 | 0.00 | 0.00 | 0.00 | 42 | |
| 20260503184316 | 16 | 56 | 4.8 | 9.7 | 0.00 | 0.00 | 0.00 | 40 | |
| 20260503183812 | 16 | 105 | 1.6 | 8.0 | 0.00 | 0.00 | 0.00 | 40 | |
| 20260503183309 | 16 | 256 | 8.0 | 12.9 | 0.00 | 0.00 | 0.00 | 39 | |
| 20260503182807 | 16 | 56 | 1.6 | 14.5 | 0.00 | 0.00 | 0.00 | 40 | |
| 20260503182306 | 16 | 8 | 3.2 | 9.7 | 0.00 | 0.00 | 0.00 | 41 | |
| 20260503181802 | 16 | 27 | 1.6 | 8.0 | 0.00 | 0.00 | 0.00 | 41 | |
| 20260503181259 | 16 | 217 | 4.8 | 12.9 | 0.00 | 0.00 | 0.00 | 40 | |
| 20260503180756 | 16 | 38 | 3.2 | 12.9 | 0.00 | 0.00 | 0.00 | 40 | |
| 20260503180254 | 16 | 152 | 4.8 | 9.7 | 0.00 | 0.00 | 0.00 | 41 | |
| 20260503175750 | 16 | 172 | 8.0 | 14.5 | 0.00 | 0.00 | 0.00 | 40 | |
| 20260503175248 | 16 | 223 | 1.6 | 14.5 | 0.00 | 0.00 | 0.00 | 40 | |
| 20260503174743 | 16 | 347 | 8.0 | 12.9 | 0.00 | 0.00 | 0.00 | 39 | |
| 20260503174242 | 16 | 273 | 3.2 | 11.3 | 0.00 | 0.00 | 0.00 | 39 | |
| 20260503173737 | 16 | 348 | 3.2 | 12.9 | 0.00 | 0.00 | 0.00 | 41 | |
| 20260503173233 | 15 | 14 | 1.6 | 8.0 | 0.00 | 0.00 | 0.00 | 40 | |
| 20260503172730 | 16 | 215 | 9.7 | 16.1 | 0.00 | 0.00 | 0.00 | 40 | |
| 20260503172227 | 15 | 218 | 4.8 | 8.0 | 0.00 | 0.00 | 0.00 | 39 | |
| 20260503171723 | 15 | 359 | 3.2 | 9.7 | 0.00 | 0.00 | 0.00 | 41 | |
| 20260503171221 | 15 | 339 | 1.6 | 8.0 | 0.00 | 0.00 | 0.00 | 41 | |
| 20260503170718 | 14 | 331 | 0.0 | 9.7 | 0.00 | 0.00 | 0.00 | 41 | |
| 20260503170215 | 14 | 341 | 3.2 | 14.5 | 0.00 | 0.00 | 0.00 | 41 | |
| 20260503160136 | 12 | 334 | 1.6 | 4.8 | 0.00 | 0.00 | 0.00 | 43 | |
| 20260503150606 | 12 | 181 | 0.0 | 3.2 | 0.00 | 0.00 | 0.00 | 42 | |
| 20260503130955 | 7 | 51 | 8.0 | 9.7 | 0.00 | 0.00 | 0.00 | 58 | |
| 20260503130453 | 7 | 279 | 3.2 | 3.2 | 0.00 | 0.00 | 0.00 | 60 | |
| 20260503110338 | 1 | 150 | 1.6 | 8.0 | 0.00 | 0.00 | 0.00 | 79 | |
| 20260503090224 | 1 | 73 | 1.6 | 3.2 | 0.00 | 0.00 | 0.00 | 69 | |
| 20260503081156 | 1 | 15 | 0.0 | 1.6 | 0.00 | 0.00 | 0.00 | 65 | |
| 20260503080652 | 1 | 28 | 1.6 | 3.2 | 0.00 | 0.00 | 0.00 | 65 | |
| 20260503080149 | 1 | 39 | 0.0 | 3.2 | 0.00 | 0.00 | 0.00 | 65 | |
| 20260503072626 | 1 | 6 | 0.0 | 1.6 | 0.00 | 0.00 | 0.00 | 64 | |
| 20260503072123 | 1 | 11 | 0.0 | 1.6 | 0.00 | 0.00 | 0.00 | 65 | |
| 20260503071620 | 1 | 28 | 0.0 | 1.6 | 0.00 | 0.00 | 0.00 | 65 | |
| 20260503071116 | 1 | 45 | 1.6 | 3.2 | 0.00 | 0.00 | 0.00 | 65 | |
| 20260503070614 | 1 | 30 | 1.6 | 1.6 | 0.00 | 0.00 | 0.00 | 65 | |
| 20260503070112 | 1 | 50 | 1.6 | 1.6 | 0.00 | 0.00 | 0.00 | 65 | |
| 20260503055032 | 0 | 15 | 0.0 | 0.0 | 0.00 | 0.00 | 0.00 | 69 | |
| 20260503054528 | 1 | 8 | 0.0 | 0.0 | 0.00 | 0.00 | 0.00 | 68 | |
| 20260503054025 | 1 | 14 | 0.0 | 0.0 | 0.00 | 0.00 | 0.00 | 66 | |
| 20260503053523 | 1 | 1 | 0.0 | 0.0 | 0.00 | 0.00 | 0.00 | 66 | |
| 20260503053021 | 1 | 359 | 0.0 | 0.0 | 0.00 | 0.00 | 0.00 | 64 | |
| 20260503052517 | 1 | 3 | 0.0 | 1.6 | 0.00 | 0.00 | 0.00 | 64 | |
| 20260503052014 | 1 | 26 | 0.0 | 1.6 | 0.00 | 0.00 | 0.00 | 65 | |
| 20260503051509 | 1 | 62 | 1.6 | 1.6 | 0.00 | 0.00 | 0.00 | 65 | |
| 20260503051007 | 1 | 8 | 0.0 | 1.6 | 0.00 | 0.00 | 0.00 | 66 | |
| 20260503050503 | 1 | 19 | 0.0 | 0.0 | 0.00 | 0.00 | 0.00 | 68 | |
| 20260503050000 | 1 | 359 | 0.0 | 0.0 | 0.00 | 0.00 | 0.00 | 69 | |
| 20260503045457 | 1 | 11 | 0.0 | 1.6 | 0.00 | 0.00 | 0.00 | 69 | |
| 20260503044954 | 1 | 11 | 0.0 | 0.0 | 0.00 | 0.00 | 0.00 | 70 | |
| 20260503044451 | 1 | 29 | 0.0 | 0.0 | 0.00 | 0.00 | 0.00 | 70 | |
| 20260503043949 | 1 | 12 | 0.0 | 0.0 | 0.00 | 0.00 | 0.00 | 70 | |
| 20260503043444 | 1 | 13 | 0.0 | 0.0 | 0.00 | 0.00 | 0.00 | 69 | |
| 20260503042941 | 1 | 8 | 0.0 | 0.0 | 0.00 | 0.00 | 0.00 | 69 | |
| 20260503042438 | 1 | 14 | 0.0 | 0.0 | 0.00 | 0.00 | 0.00 | 69 | |
| 20260503041935 | 1 | 9 | 0.0 | 1.6 | 0.00 | 0.00 | 0.00 | 68 | |
| 20260503041431 | 1 | 7 | 0.0 | 0.0 | 0.00 | 0.00 | 0.00 | 69 | |
| 20260503040929 | 1 | 11 | 0.0 | 0.0 | 0.00 | 0.00 | 0.00 | 69 | |
| 20260503040426 | 1 | 13 | 0.0 | 0.0 | 0.00 | 0.00 | 0.00 | 69 | |
| 20260503035923 | 1 | 20 | 0.0 | 0.0 | 0.00 | 0.00 | 0.00 | 69 | |
| 20260503035420 | 1 | 342 | 0.0 | 0.0 | 0.00 | 0.00 | 0.00 | 69 | |
| 20260503034918 | 1 | 6 | 0.0 | 0.0 | 0.00 | 0.00 | 0.00 | 69 | |
| 20260503034415 | 1 | 19 | 0.0 | 1.6 | 0.00 | 0.00 | 0.00 | 69 | |
| 20260503033912 | 1 | 13 | 0.0 | 0.0 | 0.00 | 0.00 | 0.00 | 69 | |
| 20260503033409 | 1 | 23 | 0.0 | 1.6 | 0.00 | 0.00 | 0.00 | 69 | |
| 20260503032907 | 1 | 15 | 0.0 | 1.6 | 0.00 | 0.00 | 0.00 | 69 | |
| 20260503032406 | 1 | 39 | 0.0 | 1.6 | 0.00 | 0.00 | 0.00 | 69 | |
| 20260503031903 | 2 | 10 | 0.0 | 0.0 | 0.00 | 0.00 | 0.00 | 68 | |
| 20260503031400 | 2 | 16 | 0.0 | 0.0 | 0.00 | 0.00 | 0.00 | 68 | |
| 20260503030856 | 2 | 9 | 0.0 | 1.6 | 0.00 | 0.00 | 0.00 | 67 | |
| 20260503030353 | 2 | 4 | 0.0 | 1.6 | 0.00 | 0.00 | 0.00 | 66 | |
| 20260503025850 | 2 | 34 | 0.0 | 1.6 | 0.00 | 0.00 | 0.00 | 66 | |
| 20260503025347 | 2 | 349 | 1.6 | 3.2 | 0.00 | 0.00 | 0.00 | 67 | |
| 20260503024844 | 2 | 17 | 0.0 | 1.6 | 0.00 | 0.00 | 0.00 | 67 | |
| 20260503024341 | 2 | 36 | 0.0 | 0.0 | 0.00 | 0.00 | 0.00 | 67 | |
| 20260503023837 | 2 | 15 | 0.0 | 0.0 | 0.00 | 0.00 | 0.00 | 66 | |
| 20260503023335 | 2 | 359 | 0.0 | 0.0 | 0.00 | 0.00 | 0.00 | 66 | |
| 20260503022831 | 2 | 43 | 0.0 | 1.6 | 0.00 | 0.00 | 0.00 | 66 | |
| 20260503022326 | 2 | 45 | 0.0 | 1.6 | 0.00 | 0.00 | 0.00 | 66 | |
| 20260503021823 | 2 | 358 | 0.0 | 0.0 | 0.00 | 0.00 | 0.00 | 66 | |
| 20260503021319 | 2 | 31 | 0.0 | 0.0 | 0.00 | 0.00 | 0.00 | 67 | |
| 20260503020817 | 2 | 4 | 0.0 | 0.0 | 0.00 | 0.00 | 0.00 | 66 | |
| 20260503020315 | 2 | 10 | 0.0 | 0.0 | 0.00 | 0.00 | 0.00 | 66 | |
| 20260503015811 | 3 | 12 | 0.0 | 1.6 | 0.00 | 0.00 | 0.00 | 65 | |
| 20260503015308 | 3 | 13 | 0.0 | 0.0 | 0.00 | 0.00 | 0.00 | 65 | |
| 20260503014803 | 3 | 11 | 0.0 | 0.0 | 0.00 | 0.00 | 0.00 | 64 | |
| 20260503014301 | 3 | 21 | 0.0 | 0.0 | 0.00 | 0.00 | 0.00 | 63 | |
| 20260503013758 | 3 | 11 | 0.0 | 0.0 | 0.00 | 0.00 | 0.00 | 63 | |
| 20260503013256 | 3 | 7 | 0.0 | 0.0 | 0.00 | 0.00 | 0.00 | 63 | |
| 20260503012753 | 3 | 6 | 0.0 | 0.0 | 0.00 | 0.00 | 0.00 | 62 | |
| 20260503012250 | 3 | 14 | 0.0 | 0.0 | 0.00 | 0.00 | 0.00 | 62 | |
| 20260503011747 | 3 | 5 | 0.0 | 0.0 | 0.00 | 0.00 | 0.00 | 61 | |
| 20260503011244 | 4 | 359 | 0.0 | 0.0 | 0.00 | 0.00 | 0.00 | 60 | |
| 20260503010740 | 4 | 352 | 0.0 | 0.0 | 0.00 | 0.00 | 0.00 | 59 | |
| 20260503010237 | 4 | 294 | 0.0 | 0.0 | 0.00 | 0.00 | 0.00 | 60 | |
| 20260503005734 | 4 | 359 | 0.0 | 0.0 | 0.00 | 0.00 | 0.00 | 59 | |
| 20260503005231 | 5 | 7 | 0.0 | 0.0 | 0.00 | 0.00 | 0.00 | 58 | |
| 20260503004727 | 5 | 8 | 0.0 | 0.0 | 0.00 | 0.00 | 0.00 | 57 | |
| 20260503004226 | 5 | 28 | 0.0 | 1.6 | 0.00 | 0.00 | 0.00 | 57 | |
| 20260503003723 | 5 | 17 | 0.0 | 1.6 | 0.00 | 0.00 | 0.00 | 56 | |
| 20260503003220 | 5 | 11 | 0.0 | 0.0 | 0.00 | 0.00 | 0.00 | 55 | |
| 20260503002716 | 5 | 38 | 1.6 | 3.2 | 0.00 | 0.00 | 0.00 | 55 | |
| 20260503002213 | 5 | 14 | 0.0 | 1.6 | 0.00 | 0.00 | 0.00 | 54 | |
| 20260503001709 | 6 | 8 | 0.0 | 1.6 | 0.00 | 0.00 | 0.00 | 54 | |
| 20260503001206 | 6 | 42 | 3.2 | 3.2 | 0.00 | 0.00 | 0.00 | 53 | |
| 20260503000704 | 6 | 43 | 3.2 | 4.8 | 0.00 | 0.00 | 0.00 | 52 | |
| 20260503000203 | 6 | 45 | 1.6 | 4.8 | 0.00 | 0.00 | 0.00 | 52 | |
| 20260502235658 | 6 | 25 | 0.0 | 8.0 | 0.00 | 0.00 | 0.00 | 52 | |
| 20260502235156 | 6 | 16 | 0.0 | 9.7 | 0.00 | 0.00 | 0.00 | 51 | |
| 20260502234651 | 6 | 28 | 4.8 | 9.7 | 0.00 | 0.00 | 0.00 | 51 | |
| 20260502234149 | 6 | 23 | 0.0 | 8.0 | 0.00 | 0.00 | 0.00 | 52 | |
| 20260502233644 | 6 | 49 | 4.8 | 11.3 | 0.00 | 0.00 | 0.00 | 51 | |
| 20260502233136 | 7 | 339 | 6.4 | 8.0 | 0.00 | 0.00 | 0.00 | 50 | |
| 20260502232632 | 6 | 117 | 4.8 | 9.7 | 0.00 | 0.00 | 0.00 | 51 | |
| 20260502232130 | 6 | 33 | 3.2 | 9.7 | 0.00 | 0.00 | 0.00 | 53 | |
| 20260502231626 | 6 | 355 | 6.4 | 11.3 | 0.00 | 0.00 | 0.00 | 52 | |
| 20260502231124 | 6 | 9 | 0.0 | 9.7 | 0.00 | 0.00 | 0.00 | 52 | |
| 20260502230622 | 6 | 61 | 1.6 | 4.8 | 0.00 | 0.00 | 0.00 | 53 | |
| 20260502230120 | 6 | 30 | 3.2 | 9.7 | 0.00 | 0.00 | 0.00 | 53 | |
| 20260502225615 | 6 | 23 | 3.2 | 12.9 | 0.00 | 0.00 | 0.00 | 55 | |
| 20260502225113 | 6 | 17 | 1.6 | 8.0 | 0.00 | 0.00 | 0.00 | 55 |